Content
SEND FEEDBACK

Daily
Averages
Monthly
Summary
United States of America

TYRONE, PENNSYLVANIA


Home > North America > United States > Pennsylvania
Elevation: 1080 feet     Latitude: 40 43N     Longitude: 078 11W

WEATHER
 
SELECT A DAY
Number of Records: 302,531;   Date Range: 1/1/95 - 8/30/14
 
SHARE

PRINT THIS DATA

[ ← Previous Day ]
WEATHER ALMANAC - FEBRUARY 13, 2013
[ Next Day → ]
[ °C ]   °F
Weather ElementAverageHighLow
Temperature27.9 °F37.4 °F (1:53 pm)21.2 °F (4:15 am)
Dewpoint24 °F30.7 °F (9:55 pm)18.5 °F (4:15 am)
Humidity86.2 %99 % (9:55 pm)56 % (1:53 pm)
Barometer29.79 in29.92 in (12:35 am)29.66 in (3:53 pm)
Wind Speed1.2 mph8.1 mph (5:20 pm)
Weather ElementAverage
Visibility5.9 mi
Wind DirectionENE (70 °)

Weather ElementTotal
Precipitation---
Heating Degree Days35.7 (Base 65)
Averaged from 39 records on February 13, 2013
WEATHER CONDITIONS BREAKOUT
WIND DIRECTION BREAKOUT
WEATHER BY HOUR - FEBRUARY 13, 2013
[ °C ]   °F
Local TimeTemperatureDewpointHumidityBarometerVisibilityWind DirectionWind SpeedGust SpeedPrecipitationEventsConditions
12:35 AM24.3 °F19.4 °F82 %29.92 in10.0 miCalmClear
12:55 AM25.2 °F20.1 °F81 %29.92 in10.0 miSW (230°)4.6 mphClear
1:15 AM25.2 °F19.8 °F80 %29.91 in10.0 miNW (310°)3.5 mphClear
1:35 AM24.6 °F20.1 °F83 %29.91 in10.0 miCalmClear
1:55 AM24.6 °F19.8 °F82 %29.90 in10.0 miCalmClear
2:15 AM23.2 °F19.4 °F85 %29.90 in10.0 miCalmClear
2:35 AM24.1 °F19.6 °F83 %29.89 in10.0 miNNW (340°)3.5 mphClear
2:55 AM23.4 °F19.0 °F84 %29.88 in10.0 miNW (320°)3.5 mphClear
3:15 AM22.8 °F19.4 °F87 %29.87 in10.0 miCalmClear
3:35 AM22.5 °F19.2 °F87 %29.86 in10.0 miCalmClear
3:55 AM23.2 °F19.6 °F86 %29.86 in10.0 miCalmClear
4:15 AM21.2 °F18.5 °F89 %29.86 in7.0 miCalmClear
4:35 AM21.4 °F19.4 °F92 %29.86 in7.0 miCalmClear
4:55 AM21.7 °F19.4 °F91 %29.86 in7.0 miCalmClear
5:15 AM21.2 °F19.2 °F92 %29.85 in7.0 miCalmClear
5:53 AM21.2 °F19.4 °F93 %29.85 in10.0 miCalmClear
6:53 AM21.2 °F19.4 °F93 %29.85 in7.0 miCalm
7:53 AM21.2 °F19.4 °F93 %29.83 in5.0 miCalmOvercast
8:53 AM24.8 °F23.0 °F93 %29.81 in5.0 miCalmScattered Clouds
10:53 AM28.4 °F24.8 °F86 %29.80 in6.0 miCalmMostly Cloudy
12:53 PM35.6 °F24.8 °F65 %29.74 in7.0 miCalmOvercast
1:53 PM37.4 °F23.0 °F56 %29.70 in7.0 miCalmOvercast
2:53 PM37.4 °F24.8 °F60 %29.68 in7.0 miCalmOvercast
3:53 PM35.6 °F24.8 °F65 %29.66 in7.0 miCalmOvercast
4:53 PM35.6 °F24.8 °F65 %29.66 in5.0 miCalmSnowLight Snow
5:05 PM35.6 °F24.8 °F65 %29.67 in1.0 miSSW (200°)6.9 mphSnowLight Snow
5:20 PM32.0 °F28.4 °F87 %29.68 in0.5 miSSW (210°)8.1 mphSnowLight Snow
5:53 PM32.0 °F30.2 °F93 %29.68 in0.5 miSouth (190°)3.5 mphSnowSnow
6:53 PM32.0 °F30.2 °F93 %29.68 in0.8 miCalmSnowSnow
7:53 PM32.0 °F30.2 °F93 %29.69 in1.0 miCalmSnowLight Snow
8:27 PM32.0 °F30.2 °F93 %29.70 in0.5 miCalmSnowLight Snow
8:53 PM32.0 °F30.2 °F93 %29.70 in0.5 miCalmSnowLight Snow
9:55 PM31.1 °F30.7 °F99 %29.71 in1.2 miCalmSnowLight Snow
10:15 PM31.1 °F30.7 °F99 %29.71 in1.5 miCalmSnowLight Snow
10:35 PM31.1 °F30.7 °F99 %29.71 in1.2 miCalmOvercast
10:55 PM30.7 °F30.2 °F98 %29.72 in1.5 miWSW (250°)3.5 mphOvercast
11:15 PM28.9 °F28.4 °F98 %29.72 in2.5 miSW (220°)3.5 mphScattered Clouds
11:35 PM29.5 °F29.1 °F99 %29.73 in5.0 miSW (230°)3.5 mphClear
11:55 PM30.9 °F30.4 °F98 %29.73 in10.0 miSW (230°)3.5 mphScattered Clouds
Hourly data recorded from KUNV, located miles away from Tyrone, Pennsylvania







STORIES FROM OUR PARTNERS